"SCLK","SCET","ORBIT_NUMBER","ALTITUDE","LATITUDE_PLANEOGRAPHIC","LATITUDE_PLANETOCENTRIC","LOCAL_TRUE_SOLAR_TIME","WEST_LONGITUDE","X_SUN_DIR_DISTANCE","RHO_PRP_SUN_DISTANCE","SOLAR_ZENITH_ANGLE","ELECTRON_PLASMA_FREQUENCY","FPE_QUALITY","FPP_VERIFICATION","ELECTRON_PLASMA_DENSITY","ELECTRON_CYCLOTRON_PERIOD","FCP_QUALITY","B_MAGNITUDE"
"1/0365873686.58874",2014-12-05T15:34:50.864,13870,1563.00,37.68,37.42,"16:28:26",296.66,-1.290,0.680,152.04,5.40e+01,2,,3.62e+01,2.20e+00,2,1.62e+01
"1/0365873694.28924",2014-12-05T15:34:58.407,13870,1553.00,37.96,37.70,"16:28:34",296.66,-1.280,0.680,151.91,5.80e+01,2,,4.17e+01,2.15e+00,2,1.66e+01
"1/0365873701.64510",2014-12-05T15:35:05.950,13870,1542.00,38.24,37.98,"16:26:23",296.67,-1.280,0.680,151.78,5.80e+01,2,,4.17e+01,2.11e+00,2,1.69e+01
"1/0365873709.34560",2014-12-05T15:35:13.493,13870,1531.00,38.53,38.27,"16:24:13",296.68,-1.280,0.690,151.64,6.50e+01,2,,5.24e+01,2.16e+00,2,1.65e+01
"1/0365873717.04676",2014-12-05T15:35:21.037,13870,1520.00,38.81,38.55,"16:24:21",296.68,-1.270,0.690,151.50,6.10e+01,2,,4.61e+01,2.14e+00,2,1.67e+01
"1/0365873724.40262",2014-12-05T15:35:28.580,13870,1510.00,39.10,38.84,"16:22:10",296.69,-1.270,0.690,151.36,5.90e+01,2,,4.32e+01,2.14e+00,2,1.67e+01
"1/0365873732.10312",2014-12-05T15:35:36.123,13870,1499.00,39.39,39.12,"16:22:18",296.69,-1.260,0.690,151.22,5.00e+01,2,,3.10e+01,2.11e+00,2,1.69e+01
"1/0365873739.45898",2014-12-05T15:35:43.666,13870,1488.00,39.68,39.41,"16:20:08",296.70,-1.260,0.690,151.07,4.60e+01,2,,2.62e+01,2.08e+00,2,1.72e+01
"1/0365873747.15948",2014-12-05T15:35:51.209,13870,1477.00,39.97,39.70,"16:20:15",296.70,-1.250,0.690,150.92,4.40e+01,2,,2.40e+01,2.02e+00,2,1.77e+01
"1/0365873754.51599",2014-12-05T15:35:58.753,13870,1467.00,40.26,39.99,"16:18:05",296.71,-1.250,0.700,150.77,4.30e+01,1,,2.29e+01,2.04e+00,2,1.75e+01
"1/0365873762.21649",2014-12-05T15:36:06.296,13870,1456.00,40.55,40.28,"16:18:12",296.71,-1.240,0.700,150.61,4.20e+01,1,,2.19e+01,2.07e+00,1,1.73e+01
"1/0365873769.57235",2014-12-05T15:36:13.839,13870,1446.00,40.85,40.58,"16:18:19",296.71,-1.240,0.700,150.46,4.00e+01,1,,1.98e+01,2.11e+00,1,1.69e+01
"1/0365873777.27285",2014-12-05T15:36:21.382,13870,1435.00,41.14,40.87,"16:16:09",296.72,-1.230,0.700,150.30,4.80e+01,1,,2.86e+01,2.16e+00,2,1.65e+01
"1/0365873784.62871",2014-12-05T15:36:28.925,13870,1424.00,41.44,41.17,"16:16:17",296.72,-1.230,0.700,150.13,4.90e+01,1,,2.98e+01,2.16e+00,2,1.65e+01
"1/0365873792.32987",2014-12-05T15:36:36.469,13870,1414.00,41.74,41.46,"16:16:24",296.72,-1.230,0.700,149.97,5.60e+01,2,,3.89e+01,2.21e+00,2,1.61e+01
"1/0365873800.03037",2014-12-05T15:36:44.012,13870,1403.00,42.04,41.76,"16:16:31",296.72,-1.220,0.710,149.80,5.90e+01,2,,4.32e+01,2.19e+00,2,1.63e+01
"1/0365873807.38623",2014-12-05T15:36:51.555,13870,1393.00,42.34,42.06,"16:16:39",296.72,-1.220,0.710,149.63,5.60e+01,2,,3.89e+01,2.19e+00,2,1.63e+01
"1/0365873815.08673",2014-12-05T15:36:59.098,13870,1382.00,42.64,42.36,"16:16:46",296.72,-1.210,0.710,149.46,5.70e+01,2,,4.03e+01,2.19e+00,2,1.63e+01
"1/0365873822.44259",2014-12-05T15:37:06.641,13870,1372.00,42.94,42.67,"16:14:36",296.73,-1.210,0.710,149.28,6.40e+01,2,,5.08e+01,2.31e+00,2,1.55e+01
"1/0365873830.14375",2014-12-05T15:37:14.185,13870,1362.00,43.25,42.97,"16:14:43",296.73,-1.200,0.710,149.10,6.30e+01,2,,4.92e+01,2.36e+00,1,1.51e+01
"1/0365873837.49961",2014-12-05T15:37:21.728,13870,1351.00,43.55,43.28,"16:14:50",296.73,-1.200,0.720,148.92,6.30e+01,2,,4.92e+01,2.34e+00,2,1.53e+01
"1/0365873845.20011",2014-12-05T15:37:29.271,13870,1341.00,43.86,43.58,"16:17:15",296.72,-1.190,0.720,148.74,6.20e+01,2,,4.77e+01,2.39e+00,2,1.49e+01
"1/0365873852.55597",2014-12-05T15:37:36.814,13870,1331.00,44.17,43.89,"16:17:23",296.72,-1.190,0.720,148.55,6.10e+01,2,,4.61e+01,2.40e+00,2,1.49e+01
"1/0365873860.25647",2014-12-05T15:37:44.357,13870,1320.00,44.48,44.20,"16:17:30",296.72,-1.180,0.720,148.36,5.00e+01,2,,3.10e+01,2.38e+00,1,1.50e+01
"1/0365873867.61298",2014-12-05T15:37:51.901,13870,1310.00,44.79,44.51,"16:17:37",296.72,-1.180,0.730,148.17,4.80e+01,1,,2.86e+01,2.34e+00,2,1.53e+01
"1/0365873875.31348",2014-12-05T15:37:59.444,13870,1300.00,45.10,44.82,"16:17:45",296.72,-1.170,0.730,147.98,4.50e+01,2,,2.51e+01,2.29e+00,2,1.56e+01
"1/0365873883.01398",2014-12-05T15:38:06.987,13870,1290.00,45.42,45.14,"16:20:09",296.71,-1.170,0.730,147.78,4.60e+01,2,,2.62e+01,2.34e+00,2,1.53e+01
"1/0365873890.36984",2014-12-05T15:38:14.530,13870,1279.00,45.73,45.45,"16:20:17",296.71,-1.160,0.730,147.58,4.80e+01,1,,2.86e+01,2.34e+00,2,1.53e+01
"1/0365873898.07034",2014-12-05T15:38:22.073,13870,1269.00,46.05,45.77,"16:20:24",296.71,-1.160,0.740,147.38,4.70e+01,1,,2.74e+01,2.37e+00,2,1.51e+01
"1/0365873905.42686",2014-12-05T15:38:29.617,13870,1259.00,46.37,46.08,"16:22:49",296.70,-1.150,0.740,147.18,5.20e+01,2,,3.35e+01,2.39e+00,2,1.49e+01
"1/0365873913.12736",2014-12-05T15:38:37.160,13870,1249.00,46.69,46.40,"16:22:56",296.70,-1.150,0.740,146.97,5.60e+01,2,,3.89e+01,2.38e+00,2,1.50e+01
"1/0365873920.48322",2014-12-05T15:38:44.703,13870,1239.00,47.01,46.72,"16:25:21",296.69,-1.140,0.740,146.76,5.60e+01,2,,3.89e+01,2.37e+00,2,1.51e+01
"1/0365873928.18372",2014-12-05T15:38:52.246,13870,1229.00,47.33,47.04,"16:27:46",296.68,-1.140,0.750,146.55,6.30e+01,2,,4.92e+01,2.39e+00,2,1.49e+01
"1/0365873935.53958",2014-12-05T15:38:59.789,13870,1219.00,47.65,47.37,"16:27:53",296.68,-1.130,0.750,146.34,6.50e+01,2,,5.24e+01,2.39e+00,2,1.49e+01
"1/0365873943.24074",2014-12-05T15:39:07.333,13870,1209.00,47.98,47.69,"16:30:18",296.67,-1.130,0.750,146.12,6.20e+01,2,,4.77e+01,2.36e+00,2,1.51e+01
"1/0365873950.59660",2014-12-05T15:39:14.876,13870,1199.00,48.30,48.02,"16:32:43",296.66,-1.120,0.750,145.91,5.80e+01,2,,4.17e+01,2.36e+00,2,1.51e+01
"1/0365873958.29710",2014-12-05T15:39:22.419,13870,1189.00,48.63,48.34,"16:35:08",296.65,-1.110,0.760,145.68,5.90e+01,2,,4.32e+01,2.35e+00,2,1.52e+01
"1/0365873965.65296",2014-12-05T15:39:29.962,13870,1179.00,48.96,48.67,"16:37:33",296.64,-1.110,0.760,145.46,6.30e+01,2,,4.92e+01,2.38e+00,2,1.50e+01
"1/0365873973.35346",2014-12-05T15:39:37.505,13870,1170.00,49.29,49.00,"16:39:58",296.63,-1.100,0.760,145.24,6.30e+01,2,,4.92e+01,2.31e+00,2,1.55e+01
"1/0365873981.05461",2014-12-05T15:39:45.049,13870,1160.00,49.62,49.33,"16:42:22",296.62,-1.100,0.760,145.01,6.50e+01,2,,5.24e+01,2.35e+00,2,1.52e+01
"1/0365873988.41047",2014-12-05T15:39:52.592,13870,1150.00,49.95,49.67,"16:44:47",296.61,-1.090,0.770,144.78,6.60e+01,2,,5.40e+01,2.41e+00,2,1.48e+01
"1/0365873996.11097",2014-12-05T15:40:00.135,13870,1140.00,50.29,50.00,"16:47:12",296.60,-1.090,0.770,144.54,6.70e+01,2,,5.57e+01,2.44e+00,2,1.46e+01
"1/0365874003.46683",2014-12-05T15:40:07.678,13870,1131.00,50.62,50.34,"16:51:55",296.58,-1.080,0.770,144.31,7.10e+01,2,,6.25e+01,2.52e+00,1,1.41e+01
"1/0365874011.16733",2014-12-05T15:40:15.221,13870,1121.00,50.96,50.68,"16:54:19",296.57,-1.080,0.770,144.07,7.10e+01,2,,6.25e+01,2.54e+00,2,1.41e+01
"1/0365874018.52385",2014-12-05T15:40:22.765,13870,1112.00,51.30,51.01,"16:59:02",296.55,-1.070,0.780,143.83,7.20e+01,2,,6.43e+01,2.46e+00,2,1.45e+01
"1/0365874026.22435",2014-12-05T15:40:30.308,13870,1102.00,51.64,51.35,"17:01:27",296.54,-1.070,0.780,143.59,6.80e+01,2,,5.73e+01,2.42e+00,2,1.47e+01
"1/0365874033.58021",2014-12-05T15:40:37.851,13870,1092.00,51.98,51.70,"17:06:09",296.52,-1.060,0.780,143.34,6.60e+01,2,,5.40e+01,2.52e+00,2,1.42e+01
"1/0365874041.28071",2014-12-05T15:40:45.394,13870,1083.00,52.32,52.04,"17:10:51",296.50,-1.050,0.790,143.09,7.90e+01,2,,7.74e+01,2.75e+00,2,1.30e+01
"1/0365874048.63723",2014-12-05T15:40:52.938,13870,1074.00,52.67,52.38,"17:15:34",296.48,-1.050,0.790,142.84,6.80e+01,2,,5.73e+01,2.61e+00,1,1.37e+01
"1/0365874056.33773",2014-12-05T15:41:00.481,13870,1064.00,53.01,52.73,"17:20:16",296.46,-1.040,0.790,142.59,6.50e+01,2,,5.24e+01,2.56e+00,2,1.40e+01
"1/0365874064.03823",2014-12-05T15:41:08.024,13870,1055.00,53.36,53.08,"17:24:58",296.44,-1.040,0.790,142.34,7.20e+01,2,,6.43e+01,2.55e+00,2,1.40e+01
"1/0365874071.39409",2014-12-05T15:41:15.567,13870,1046.00,53.71,53.43,"17:29:41",296.42,-1.030,0.800,142.08,7.50e+01,2,,6.98e+01,2.52e+00,2,1.41e+01
"1/0365874079.09459",2014-12-05T15:41:23.110,13870,1036.00,54.06,53.78,"17:34:23",296.40,-1.030,0.800,141.82,7.80e+01,2,,7.54e+01,2.52e+00,2,1.42e+01
"1/0365874086.45110",2014-12-05T15:41:30.654,13870,1027.00,54.41,54.13,"17:41:23",296.37,-1.020,0.800,141.56,8.30e+01,2,,8.54e+01,2.52e+00,2,1.41e+01
"1/0365874094.15160",2014-12-05T15:41:38.197,13870,1018.00,54.76,54.48,"17:46:05",296.35,-1.010,0.810,141.30,8.40e+01,2,,8.75e+01,2.45e+00,2,1.46e+01
"1/0365874101.50746",2014-12-05T15:41:45.740,13870,1009.00,55.12,54.84,"17:53:05",296.32,-1.010,0.810,141.03,8.30e+01,2,,8.54e+01,2.43e+00,2,1.47e+01
"1/0365874109.20796",2014-12-05T15:41:53.283,13870,1000.00,55.47,55.19,"18:00:05",296.29,-1.000,0.810,140.76,8.00e+01,2,,7.94e+01,2.50e+00,2,1.43e+01
"1/0365874116.56382",2014-12-05T15:42:00.826,13870,991.00,55.83,55.55,"18:07:05",296.26,-1.000,0.820,140.49,8.30e+01,2,,8.54e+01,2.54e+00,2,1.41e+01
"1/0365874124.26498",2014-12-05T15:42:08.370,13870,982.00,56.19,55.91,"18:14:05",296.23,-0.990,0.820,140.22,8.30e+01,2,,8.54e+01,2.50e+00,2,1.43e+01
"1/0365874131.62084",2014-12-05T15:42:15.913,13870,973.00,56.55,56.27,"18:21:05",296.20,-0.980,0.820,139.94,7.80e+01,2,,7.54e+01,2.43e+00,2,1.47e+01
"1/0365874139.32134",2014-12-05T15:42:23.456,13870,964.00,56.91,56.63,"18:28:04",296.17,-0.980,0.820,139.66,7.90e+01,2,,7.74e+01,2.43e+00,2,1.47e+01
"1/0365874147.02184",2014-12-05T15:42:30.999,13870,955.00,57.27,56.99,"18:37:22",296.13,-0.970,0.830,139.39,7.70e+01,2,,7.35e+01,2.37e+00,2,1.51e+01
"1/0365874154.37770",2014-12-05T15:42:38.542,13870,946.00,57.64,57.36,"18:44:22",296.10,-0.970,0.830,139.10,9.60e+01,2,,1.14e+02,2.43e+00,2,1.47e+01
"1/0365874162.07886",2014-12-05T15:42:46.086,13870,937.00,58.00,57.73,"18:53:39",296.06,-0.960,0.830,138.82,9.70e+01,2,,1.17e+02,2.44e+00,2,1.46e+01
"1/0365874169.43472",2014-12-05T15:42:53.629,13870,929.00,58.37,58.09,"19:02:56",296.02,-0.950,0.840,138.53,9.80e+01,2,,1.19e+02,2.48e+00,2,1.44e+01
"1/0365874177.13522",2014-12-05T15:43:01.172,13870,920.00,58.74,58.46,"19:12:14",295.98,-0.950,0.840,138.24,1.02e+02,2,,1.29e+02,2.42e+00,2,1.47e+01
"1/0365874184.49108",2014-12-05T15:43:08.715,13870,911.00,59.11,58.83,"19:23:49",295.93,-0.940,0.840,137.95,8.30e+01,2,,8.54e+01,2.34e+00,2,1.53e+01
"1/0365874192.19158",2014-12-05T15:43:16.258,13870,903.00,59.48,59.21,"19:33:06",295.89,-0.930,0.850,137.66,7.50e+01,2,,6.98e+01,2.30e+00,2,1.55e+01
"1/0365874199.54809",2014-12-05T15:43:23.802,13870,894.00,59.85,59.58,"19:44:41",295.84,-0.930,0.850,137.37,7.60e+01,2,,7.16e+01,2.27e+00,2,1.58e+01
"1/0365874207.24859",2014-12-05T15:43:31.345,13870,886.00,60.22,59.96,"19:56:16",295.79,-0.920,0.850,137.07,7.00e+01,2,,6.08e+01,2.23e+00,2,1.61e+01
"1/0365874214.60445",2014-12-05T15:43:38.888,13870,877.00,60.60,60.33,"20:07:51",295.74,-0.920,0.860,136.77,5.80e+01,2,,4.17e+01,2.17e+00,2,1.64e+01
"1/0365874222.30495",2014-12-05T15:43:46.431,13870,869.00,60.97,60.71,"20:19:26",295.69,-0.910,0.860,136.47,5.70e+01,2,,4.03e+01,2.16e+00,2,1.65e+01
"1/0365874230.00545",2014-12-05T15:43:53.974,13870,861.00,61.35,61.09,"20:33:18",295.63,-0.900,0.860,136.16,5.60e+01,2,,3.89e+01,2.14e+00,2,1.67e+01
"1/0365874237.36197",2014-12-05T15:44:01.518,13870,852.00,61.73,61.47,"20:47:10",295.57,-0.900,0.860,135.86,6.00e+01,2,,4.46e+01,2.18e+00,2,1.64e+01
"1/0365874245.06247",2014-12-05T15:44:09.061,13870,844.00,62.11,61.85,"21:01:03",295.51,-0.890,0.870,135.55,5.80e+01,2,,4.17e+01,2.16e+00,2,1.65e+01
"1/0365874252.41833",2014-12-05T15:44:16.604,13870,836.00,62.49,62.24,"21:17:13",295.44,-0.880,0.870,135.24,5.90e+01,2,,4.32e+01,2.16e+00,2,1.65e+01
"1/0365874260.11883",2014-12-05T15:44:24.147,13870,828.00,62.88,62.62,"21:31:05",295.38,-0.880,0.870,134.93,5.90e+01,2,,4.32e+01,2.10e+00,2,1.70e+01
"1/0365874267.47469",2014-12-05T15:44:31.690,13870,820.00,63.26,63.01,"21:47:15",295.31,-0.870,0.880,134.61,6.00e+01,2,,4.46e+01,2.02e+00,2,1.77e+01
"1/0365874275.17585",2014-12-05T15:44:39.234,13870,812.00,63.65,63.40,"22:03:25",295.24,-0.860,0.880,134.30,6.10e+01,2,,4.61e+01,2.08e+00,2,1.72e+01
"1/0365874282.53171",2014-12-05T15:44:46.777,13870,804.00,64.04,63.79,"22:21:52",295.16,-0.860,0.880,133.98,5.90e+01,2,,4.32e+01,2.06e+00,2,1.73e+01
"1/0365874290.23221",2014-12-05T15:44:54.320,13870,796.00,64.43,64.18,"22:40:20",295.08,-0.850,0.890,133.66,5.80e+01,2,,4.17e+01,2.00e+00,2,1.79e+01
"1/0365874297.58807",2014-12-05T15:45:01.863,13870,788.00,64.82,64.57,"22:58:47",295.00,-0.840,0.890,133.34,5.60e+01,2,,3.89e+01,2.08e+00,2,1.72e+01
"1/0365874305.28857",2014-12-05T15:45:09.406,13870,780.00,65.21,64.97,"23:19:32",294.91,-0.840,0.890,133.01,5.70e+01,2,,4.03e+01,2.07e+00,2,1.73e+01
"1/0365874312.64508",2014-12-05T15:45:16.950,13870,773.00,65.60,65.36,"23:40:17",294.82,-0.830,0.900,132.69,5.60e+01,2,,3.89e+01,2.07e+00,2,1.73e+01
"1/0365874320.34558",2014-12-05T15:45:24.493,13870,765.00,65.99,65.76,"00:03:20",294.72,-0.820,0.900,132.36,5.90e+01,2,,4.32e+01,2.04e+00,2,1.75e+01
"1/0365874328.04608",2014-12-05T15:45:32.036,13870,757.00,66.39,66.16,"00:26:22",294.62,-0.820,0.900,132.03,5.90e+01,2,,4.32e+01,2.01e+00,2,1.78e+01
"1/0365874335.40194",2014-12-05T15:45:39.579,13870,750.00,66.79,66.55,"00:49:24",294.52,-0.810,0.900,131.70,5.70e+01,2,,4.03e+01,2.02e+00,2,1.77e+01
"1/0365874343.10244",2014-12-05T15:45:47.122,13870,743.00,67.19,66.96,"01:14:44",294.41,-0.800,0.910,131.36,5.90e+01,2,,4.32e+01,2.02e+00,2,1.77e+01
"1/0365874350.45896",2014-12-05T15:45:54.666,13870,735.00,67.58,67.36,"01:40:04",294.30,-0.800,0.910,131.03,6.20e+01,2,,4.77e+01,2.08e+00,2,1.72e+01
"1/0365874358.15946",2014-12-05T15:46:02.209,13870,728.00,67.99,67.76,"02:07:42",294.18,-0.790,0.910,130.69,6.40e+01,2,,5.08e+01,2.08e+00,2,1.72e+01
"1/0365874365.51532",2014-12-05T15:46:09.752,13870,721.00,68.39,68.17,"02:37:37",294.05,-0.780,0.920,130.35,6.60e+01,2,,5.40e+01,2.16e+00,2,1.65e+01
"1/0365874373.21582",2014-12-05T15:46:17.295,13870,713.00,68.79,68.57,"03:07:32",293.92,-0.780,0.920,130.01,6.80e+01,2,,5.73e+01,2.15e+00,2,1.66e+01
"1/0365874380.57168",2014-12-05T15:46:24.838,13870,706.00,69.19,68.98,"03:39:44",293.78,-0.770,0.920,129.66,6.80e+01,2,,5.73e+01,2.06e+00,2,1.73e+01
"1/0365874388.27284",2014-12-05T15:46:32.382,13870,699.00,69.60,69.39,"04:11:57",293.64,-0.760,0.930,129.32,6.60e+01,2,,5.40e+01,1.99e+00,2,1.79e+01
"1/0365874395.62870",2014-12-05T15:46:39.925,13870,692.00,70.01,69.80,"04:48:44",293.48,-0.760,0.930,128.97,6.50e+01,2,,5.24e+01,2.08e+00,1,1.71e+01
"1/0365874403.32920",2014-12-05T15:46:47.468,13870,685.00,70.41,70.21,"05:25:32",293.32,-0.750,0.930,128.62,6.50e+01,2,,5.24e+01,1.99e+00,2,1.79e+01
"1/0365874411.02970",2014-12-05T15:46:55.011,13870,678.00,70.82,70.62,"06:04:37",293.15,-0.740,0.940,128.27,6.20e+01,2,,4.77e+01,2.14e+00,2,1.67e+01
"1/0365874418.38556",2014-12-05T15:47:02.554,13870,671.00,71.23,71.03,"06:45:59",292.97,-0.730,0.940,127.92,6.10e+01,2,,4.61e+01,2.13e+00,2,1.68e+01
"1/0365874426.08671",2014-12-05T15:47:10.098,13870,665.00,71.65,71.45,"07:27:22",292.79,-0.730,0.940,127.56,6.00e+01,2,,4.46e+01,2.05e+00,2,1.74e+01
"1/0365874433.44257",2014-12-05T15:47:17.641,13870,658.00,72.06,71.87,"08:13:19",292.59,-0.720,0.940,127.21,5.70e+01,2,,4.03e+01,1.97e+00,2,1.81e+01
"1/0365874441.14307",2014-12-05T15:47:25.184,13870,651.00,72.47,72.28,"09:01:34",292.38,-0.710,0.950,126.85,5.60e+01,2,,3.89e+01,1.99e+00,2,1.80e+01
"1/0365874448.49893",2014-12-05T15:47:32.727,13870,645.00,72.89,72.70,"09:52:07",292.16,-0.710,0.950,126.49,6.10e+01,2,,4.61e+01,1.90e+00,2,1.88e+01
"1/0365874456.19943",2014-12-05T15:47:40.270,13870,638.00,73.30,73.12,"10:47:14",291.92,-0.700,0.950,126.13,6.40e+01,2,,5.08e+01,1.89e+00,2,1.89e+01
"1/0365874463.55595",2014-12-05T15:47:47.814,13870,632.00,73.72,73.54,"11:44:39",291.67,-0.690,0.960,125.76,6.30e+01,2,,4.92e+01,1.92e+00,2,1.86e+01
"1/0365874471.25645",2014-12-05T15:47:55.357,13870,626.00,74.13,73.96,"12:44:22",291.41,-0.680,0.960,125.40,6.40e+01,2,,5.08e+01,1.94e+00,2,1.84e+01
"1/0365874478.61231",2014-12-05T15:48:02.900,13870,619.00,74.55,74.38,"13:48:40",291.13,-0.680,0.960,125.03,6.70e+01,2,,5.57e+01,1.89e+00,2,1.89e+01
"1/0365874486.31281",2014-12-05T15:48:10.443,13870,613.00,74.97,74.80,"14:57:32",290.83,-0.670,0.960,124.66,7.00e+01,2,,6.08e+01,1.90e+00,2,1.88e+01
"1/0365874494.01331",2014-12-05T15:48:17.986,13870,607.00,75.39,75.23,"16:11:00",290.51,-0.660,0.970,124.29,7.20e+01,2,,6.43e+01,1.79e+00,2,2.00e+01
"1/0365874501.36982",2014-12-05T15:48:25.530,13870,601.00,75.81,75.65,"17:29:03",290.17,-0.660,0.970,123.92,6.70e+01,2,,5.57e+01,1.83e+00,2,1.95e+01
"1/0365874509.07033",2014-12-05T15:48:33.073,13870,595.00,76.23,76.08,"18:51:40",289.81,-0.650,0.970,123.54,7.10e+01,2,,6.25e+01,1.73e+00,2,2.07e+01
"1/0365874516.42619",2014-12-05T15:48:40.616,13870,589.00,76.65,76.50,"20:21:11",289.42,-0.640,0.980,123.17,6.50e+01,2,,5.24e+01,1.77e+00,2,2.02e+01
"1/0365874524.12669",2014-12-05T15:48:48.159,13870,583.00,77.07,76.93,"21:57:33",289.00,-0.630,0.980,122.79,6.60e+01,2,,5.40e+01,1.87e+00,2,1.91e+01
"1/0365874531.48255",2014-12-05T15:48:55.702,13870,578.00,77.50,77.36,"23:38:31",288.56,-0.630,0.980,122.41,6.70e+01,2,,5.57e+01,1.79e+00,2,2.00e+01
"1/0365874539.18370",2014-12-05T15:49:03.246,13870,572.00,77.92,77.78,"01:28:39",288.08,-0.620,0.980,122.03,7.30e+01,2,,6.61e+01,1.83e+00,2,1.95e+01
"1/0365874546.53956",2014-12-05T15:49:10.789,13870,566.00,78.34,78.21,"03:27:57",287.56,-0.610,0.990,121.65,7.50e+01,2,,6.98e+01,1.76e+00,2,2.03e+01
"1/0365874554.24006",2014-12-05T15:49:18.332,13870,561.00,78.77,78.64,"05:38:42",286.99,-0.600,0.990,121.27,8.30e+01,2,,8.54e+01,1.68e+00,2,2.13e+01
"1/0365874561.59592",2014-12-05T15:49:25.875,13870,555.00,79.19,79.06,"07:58:38",286.38,-0.600,0.990,120.88,8.30e+01,2,,8.54e+01,1.70e+00,2,2.10e+01
"1/0365874569.29708",2014-12-05T15:49:33.419,13870,550.00,79.61,79.49,"10:30:01",285.72,-0.590,0.990,120.50,7.50e+01,2,,6.98e+01,1.66e+00,1,2.15e+01
"1/0365874576.65294",2014-12-05T15:49:40.962,13870,545.00,80.03,79.92,"13:15:09",285.00,-0.580,1.000,120.11,7.00e+01,2,,6.08e+01,1.72e+00,2,2.07e+01
"1/0365874584.35344",2014-12-05T15:49:48.505,13870,540.00,80.45,80.34,"16:16:19",284.21,-0.570,1.000,119.72,6.70e+01,2,,5.57e+01,1.71e+00,2,2.09e+01
"1/0365874592.05394",2014-12-05T15:49:56.048,13870,534.00,80.87,80.77,"19:35:50",283.34,-0.560,1.000,119.33,7.30e+01,2,,6.61e+01,1.68e+00,2,2.12e+01
"1/0365874599.40980",2014-12-05T15:50:03.591,13870,529.00,81.29,81.19,"23:15:58",282.38,-0.560,1.010,118.94,7.20e+01,2,,6.43e+01,1.67e+00,2,2.14e+01
"1/0365874607.11095",2014-12-05T15:50:11.135,13870,524.00,81.71,81.61,"03:16:44",281.33,-0.550,1.010,118.54,7.00e+01,2,,6.08e+01,1.81e+00,2,1.97e+01
"1/0365874614.46681",2014-12-05T15:50:18.678,13870,520.00,82.12,82.03,"07:47:18",280.15,-0.540,1.010,118.15,7.10e+01,2,,6.25e+01,1.68e+00,2,2.13e+01
"1/0365874622.16731",2014-12-05T15:50:26.221,13870,515.00,82.54,82.45,"12:47:39",278.84,-0.530,1.010,117.75,7.10e+01,2,,6.25e+01,1.77e+00,2,2.02e+01
"1/0365874629.52318",2014-12-05T15:50:33.764,13870,510.00,82.94,82.86,"18:24:40",277.37,-0.530,1.020,117.36,7.00e+01,2,,6.08e+01,1.64e+00,2,2.18e+01
"1/0365874637.22368",2014-12-05T15:50:41.307,13870,505.00,83.35,83.27,"00:45:14",275.71,-0.520,1.020,116.96,7.00e+01,2,,6.08e+01,1.76e+00,2,2.03e+01
"1/0365874644.58019",2014-12-05T15:50:48.851,13870,501.00,83.75,83.67,"07:53:56",273.84,-0.510,1.020,116.56,8.00e+01,2,,7.94e+01,1.83e+00,2,1.95e+01
"1/0365874652.28069",2014-12-05T15:50:56.394,13870,496.00,84.14,84.07,"16:04:30",271.70,-0.500,1.020,116.16,7.70e+01,2,,7.35e+01,1.95e+00,2,1.84e+01
"1/0365874659.63655",2014-12-05T15:51:03.937,13870,492.00,84.52,84.45,"01:26:07",269.25,-0.500,1.020,115.75,8.50e+01,2,,8.96e+01,1.98e+00,2,1.80e+01
"1/0365874667.33705",2014-12-05T15:51:11.480,13870,488.00,84.89,84.83,"12:12:33",266.43,-0.490,1.030,115.35,7.30e+01,2,,6.61e+01,2.09e+00,2,1.71e+01
"1/0365874675.03755",2014-12-05T15:51:19.023,13870,483.00,85.25,85.19,"00:39:48",263.17,-0.480,1.030,114.94,7.40e+01,2,,6.79e+01,2.25e+00,1,1.59e+01
"1/0365874682.39407",2014-12-05T15:51:26.567,13870,479.00,85.59,85.54,"15:08:32",259.38,-0.470,1.030,114.54,7.50e+01,2,,6.98e+01,,,
"1/0365874690.09457",2014-12-05T15:51:34.110,13870,475.00,85.91,85.86,"08:01:38",254.96,-0.460,1.030,114.13,6.60e+01,2,,5.40e+01,2.56e+00,1,1.40e+01
"1/0365874697.45043",2014-12-05T15:51:41.653,13870,471.00,86.20,86.15,"03:42:03",249.81,-0.460,1.040,113.72,5.90e+01,2,,4.32e+01,2.32e+00,2,1.54e+01
"1/0365874705.15093",2014-12-05T15:51:49.196,13870,467.00,86.46,86.41,"02:25:49",243.86,-0.450,1.040,113.31,6.20e+01,2,,4.77e+01,,,
"1/0365874712.50679",2014-12-05T15:51:56.739,13870,464.00,86.67,86.62,"04:26:41",237.05,-0.440,1.040,112.90,5.50e+01,2,,3.75e+01,,,
"1/0365874720.20794",2014-12-05T15:52:04.283,13870,460.00,86.83,86.78,"09:35:28",229.42,-0.430,1.040,112.49,5.40e+01,2,,3.62e+01,2.27e+00,1,1.58e+01
"1/0365874727.56380",2014-12-05T15:52:11.826,13870,456.00,86.92,86.88,"17:13:13",221.14,-0.420,1.050,112.07,5.00e+01,2,,3.10e+01,,,
"1/0365874735.26430",2014-12-05T15:52:19.369,13870,453.00,86.95,86.91,"02:13:29",212.50,-0.420,1.050,111.66,5.70e+01,2,,4.03e+01,,,
"1/0365874742.62016",2014-12-05T15:52:26.912,13870,449.00,86.91,86.87,"11:09:10",203.88,-0.410,1.050,111.24,5.40e+01,2,,3.62e+01,,,
"1/0365874750.32067",2014-12-05T15:52:34.455,13870,446.00,86.80,86.76,"18:35:28",195.65,-0.400,1.050,110.83,6.50e+01,2,,5.24e+01,,,
"1/0365874758.02182",2014-12-05T15:52:41.999,13870,443.00,86.63,86.59,"23:23:38",188.11,-0.390,1.050,110.41,6.70e+01,2,,5.57e+01,2.94e+00,1,1.22e+01
"1/0365874765.37768",2014-12-05T15:52:49.542,13870,439.00,86.41,86.36,"01:06:09",181.38,-0.380,1.060,109.99,6.30e+01,2,,4.92e+01,3.06e+00,1,1.17e+01
"1/0365874773.07818",2014-12-05T15:52:57.085,13870,436.00,86.14,86.09,"23:31:35",175.51,-0.370,1.060,109.57,7.40e+01,2,,6.79e+01,3.35e+00,1,1.07e+01
"1/0365874780.43404",2014-12-05T15:53:04.628,13870,433.00,85.83,85.78,"18:53:40",170.44,-0.370,1.060,109.15,7.40e+01,2,,6.79e+01,2.71e+00,2,1.32e+01
"1/0365874788.13454",2014-12-05T15:53:12.171,13870,431.00,85.50,85.44,"11:30:44",166.09,-0.360,1.060,108.73,7.00e+01,2,,6.08e+01,2.60e+00,2,1.38e+01
"1/0365874795.49106",2014-12-05T15:53:19.715,13870,428.00,85.15,85.08,"01:48:00",162.35,-0.350,1.060,108.31,5.70e+01,2,,4.03e+01,,,
"1/0365874803.19156",2014-12-05T15:53:27.258,13870,425.00,84.77,84.71,"14:03:48",159.14,-0.340,1.060,107.88,6.10e+01,2,,4.61e+01,2.76e+00,1,1.29e+01
"1/0365874810.54742",2014-12-05T15:53:34.801,13870,422.00,84.38,84.31,"00:41:03",156.36,-0.330,1.070,107.46,6.50e+01,2,,5.24e+01,2.59e+00,1,1.38e+01
"1/0365874818.24792",2014-12-05T15:53:42.344,13870,420.00,83.98,83.91,"09:53:30",153.95,-0.330,1.070,107.03,6.20e+01,2,,4.77e+01,,,
"1/0365874825.60378",2014-12-05T15:53:49.887,13870,417.00,83.57,83.49,"17:57:12",151.84,-0.320,1.070,106.61,5.80e+01,2,,4.17e+01,,,
"1/0365874833.30493",2014-12-05T15:53:57.431,13870,415.00,83.15,83.06,"01:03:36",149.98,-0.310,1.070,106.18,5.50e+01,2,,3.75e+01,2.28e+00,2,1.57e+01
"1/0365874841.00543",2014-12-05T15:54:04.974,13870,413.00,82.72,82.63,"07:17:18",148.35,-0.300,1.070,105.75,6.90e+01,2,,5.90e+01,2.31e+00,2,1.55e+01
"1/0365874848.36129",2014-12-05T15:54:12.517,13870,411.00,82.29,82.19,"12:49:44",146.90,-0.290,1.080,105.33,6.20e+01,2,,4.77e+01,2.16e+00,2,1.65e+01
"1/0365874856.06179",2014-12-05T15:54:20.060,13870,409.00,81.85,81.75,"17:47:48",145.60,-0.280,1.080,104.90,7.10e+01,2,,6.25e+01,2.20e+00,2,1.62e+01
"1/0365874863.41765",2014-12-05T15:54:27.603,13870,407.00,81.41,81.30,"22:13:46",144.44,-0.280,1.080,104.47,6.80e+01,2,,5.73e+01,2.15e+00,2,1.66e+01
"1/0365874871.11881",2014-12-05T15:54:35.147,13870,405.00,80.96,80.85,"02:14:32",143.39,-0.270,1.080,104.04,6.00e+01,2,,4.46e+01,1.96e+00,2,1.83e+01